Location: Westminster
(33.3626°N, 96.4619°W)
Time: 21:02:36
(UTC+00:00)

Cosmos 836 Rocket - Pass Details

Date: 03 December 2021
Orbit: 758 x 777 km, 74.1° (Epoch: 26 January)

Event Time Altitude Azimuth Distance (km) Brightness Sun altitude
Exits shadow 12:09:02 - 341° (NNW) 2,944 7.2 -13.3°
Reaches altitude 10° 12:10:40 10° 341° (NNW) 2,307 6.6 -13.0°
Maximum altitude 12:15:54 79° 255° (WSW) 779 4.4 -11.9°
Drops below altitude 10° 12:21:05 10° 169° (S) 2,282 7.4 -10.9°
Sets 12:23:26 0° 168° (SSE) 3,202 8.2 -10.5°
